Weather in Strashevichi

Russia / Tver Oblast     56°49′23″N   34°35′51″E
temp.,
°C
wind,
m/s
gust,
m/s
humid.,
%
clouds,
%
prec.,
mm/h
press.,
hPa
HPBL,
m
17 april, sat
sat1700:00+9ene51281100 0.0 1022746
03:00+8ene51185100 0.0 1023567
06:00+6ene41185100 0.0 1024501
09:00+8ene51079100 0.0 1024560
12:00+12ene586599 0.0 1023953
15:00+13ene596185 0.0 10231204
18:00+13ene5106155 0.0 10221105
21:00+9ne5136797 0.0 1023702
18 april, sun
sun1800:00+7ene5136483 0.0 1023613
03:00+5ne51371100 0.0 1023497
06:00+4ne5137974 0.0 1024521
09:00+7ene61163100 0.0 1023784
12:00+11ene694522 0.0 10231355
15:00+13ene69396 0.0 10231848
18:00+12ene594721 0.0 10231876
21:00+8ene396181 0.0 1024393
19 april, mon
mon1900:00+5ene268330 0.0 1025176
03:00+5ene4108699 0.0 1026508
06:00+3ne499190 0.0 1026400
09:00+4ene4985100 0.0 1027649
12:00+7ene4874100 0.0 10261029
15:00+6e4878100 0.0 1027930
18:00+7e496998 0.0 10261028
21:00+6e4971100 0.0 1026834
20 april, tue
tue2000:00+4e41084100 0.0 1025815
03:00+3ese4979100 0.1 1025800
06:00+2e4106775 0.0 1023579
09:00+4e5867100 0.0 1022702
12:00+3ene51084100 0.1 1021697
15:00+2ene51396100 3.2 1018669
18:00+2ene51597100 3.9 1014847
21:00+5ene61596100 9.1 10091187
21 april, wed
wed2100:00+4e61697100 4.3 10051237
03:00+4e61597100 9.3 10011086
06:00+5e51497100 0.9 998957
09:00+6e51295100 3.3 9961164
12:00+7se31096100 2.6 995694
15:00+7s3996100 2.9 996548
18:00+5ssw5996100 0.8 999509
21:00+2wsw51297100 3.1 1004710